Snowfall_Accumulation
0.0 0.0 0.0 0.0 0.0 0.0 0.0 0.0 0.0 0.0 0.0 0.0 0.0 0.0 0.0 0.0 0.0 0.0 0.0 0.0 0.0 0.0 0.0 0.0 0.0 0.0 0.0 0.0 0.0 0.0 0.0 0.0 0.0 0.0 0.0 0.0 0.0 0.0 0.0 0.0 0.0 0.0 0.0
0.0 0.0 0.0 0.0 0.0 0.0 0.0 0.0 0.0 0.0 0.0 0.0 0.0 0.0 0.0 0.0 0.0 0.0 0.0 0.0 0.0 0.0 0.0 0.0 0.0 0.0 0.0 0.0 0.0 0.0 0.0 0.0 0.0 0.0 0.0 0.0 0.0 0.0 0.0 0.0 0.0 0.0 0.0
0.0 0.0 0.0 0.0 0.0 0.0 0.0 0.0 0.0 0.0 0.0 0.0 0.0 0.0 0.0 0.0 0.0 0.0 0.0 0.0 0.0 0.0 0.0 0.0 0.0 0.0 0.0 0.0 0.0 0.0 0.0 0.0 0.0 0.0 0.0 0.0 0.0 0.0 0.0 0.0 0.0 0.0 0.0
0.0 0.0 0.0 0.0 0.0 0.0 0.0 0.0 0.0 0.0 0.0 0.0 0.0 0.0 0.0 0.0 0.0 0.0 0.0 0.0 0.0 0.0 0.0 0.0 0.0 0.0 0.0 0.0 0.0 0.0 0.0 0.0 0.0 0.0 0.0 0.0 0.0 0.1 0.0 0.0 0.0 0.0 0.0
0.0 0.0 0.0 0.0 0.0 0.0 0.0 0.0 0.0 0.0 0.0 0.0 0.0 0.0 0.0 0.0 0.0 0.0 0.0 0.0 0.0 0.0 0.0 0.0 0.0 0.0 0.0 0.0 0.0 0.0 0.0 0.0 0.0 0.0 0.0 0.0 0.0 0.0 0.1 0.0 0.0 0.0 0.0
0.0 0.0 0.0 0.0 0.0 0.0 0.0 0.0 0.0 0.0 0.0 0.0 0.0 0.0 0.0 0.0 0.0 0.0 0.0 0.0 0.0 0.0 0.0 0.0 0.0 0.0 0.0 0.0 0.0 0.0 0.0 0.0 0.0 0.0 0.0 0.0 0.1 0.0 0.1 0.1 0.0 0.0 0.0
0.0 0.0 0.0 0.0 0.0 0.0 0.0 0.0 0.0 0.0 0.0 0.0 0.0 0.0 0.0 0.0 0.0 0.0 0.0 0.0 0.0 0.0 0.0 0.0 0.0 0.0 0.0 0.0 0.0 0.0 0.0 0.0 0.0 0.0 0.0 0.0 0.0 0.0 0.0 0.1 0.0 0.0 0.0
0.0 0.0 0.0 0.0 0.0 0.0 0.0 0.0 0.0 0.0 0.0 0.0 0.0 0.0 0.0 0.0 0.0 0.0 0.0 0.0 0.0 0.0 0.0 0.0 0.0 0.0 0.0 0.0 0.0 0.0 0.0 0.0 0.0 0.0 0.0 0.0 0.0 0.0 0.0 0.1 0.2 0.1 0.0
0.0 0.0 0.0 0.0 0.0 0.0 0.0 0.0 0.0 0.0 0.0 0.0 0.0 0.0 0.0 0.0 0.0 0.0 0.0 0.0 0.0 0.0 0.0 0.0 0.0 0.0 0.0 0.0 0.0 0.0 0.0 0.0 0.0 0.1 0.1 0.0 0.0 0.0 0.0 0.0 0.0 0.2 0.4
0.0 0.0 0.0 0.0 0.0 0.0 0.0 0.0 0.0 0.0 0.0 0.0 0.0 0.0 0.0 0.0 0.0 0.0 0.0 0.0 0.0 0.0 0.0 0.0 0.0 0.0 0.0 0.0 0.0 0.0 0.0 0.0 0.1 0.0 0.1 0.1 0.1 0.1 0.1 0.0 0.0 0.0 0.2
0.0 0.0 0.0 0.0 0.0 0.0 0.0 0.0 0.0 0.0 0.0 0.0 0.0 0.0 0.0 0.0 0.0 0.0 0.0 0.0 0.0 0.0 0.0 0.0 0.0 0.1 0.0 0.1 0.0 0.0 0.1 0.1 0.0 0.0 0.1 0.1 0.1 0.3 0.3 0.1 0.0 0.0 0.1
0.0 0.0 0.0 0.0 0.0 0.0 0.0 0.0 0.0 0.0 0.0 0.0 0.0 0.0 0.0 0.0 0.0 0.0 0.0 0.0 0.0 0.0 0.0 0.0 0.0 0.0 0.1 0.1 0.1 0.1 0.1 0.1 0.1 0.1 0.1 0.1 0.0 0.2 0.2 0.6 0.2 0.3 0.3
0.0 0.0 0.0 0.0 0.4 0.0 0.1 0.0 0.1 0.1 0.0 0.0 0.0 0.1 0.1 0.1 0.1 0.1 0.0 0.0 0.0 0.0 0.0 0.1 0.1 0.1 0.1 0.1 0.1 0.1 0.1 0.1 0.2 0.2 0.2 0.3 0.2 0.2 0.7 1.0 1.4 0.8 0.2
0.0 0.0 0.0 0.0 0.0 0.0 0.1 1.4 0.1 0.1 0.1 0.1 0.1 0.1 0.2 0.2 0.1 0.1 0.1 0.0 0.0 0.0 0.0 0.0 0.1 0.2 0.1 0.1 0.1 0.1 0.1 0.2 0.3 0.3 0.3 0.5 0.4 1.0 0.6 0.5 1.5 1.0 1.0
0.0 0.0 0.0 0.0 0.0 0.0 0.0 0.0 0.0 0.4 1.4 0.8 0.8 1.4 0.3 0.1 0.1 0.1 0.0 0.0 0.0 0.0 0.0 0.0 0.0 0.0 0.0 0.1 0.1 0.1 0.1 0.2 0.2 0.2 0.1 0.2 nan nan nan 0.9 1.6 0.8 1.0
0.0 0.0 0.0 0.0 0.0 0.0 0.0 0.0 0.0 0.1 0.1 1.3 3.2 0.7 0.4 1.0 0.2 0.1 0.0 0.0 0.0 0.1 0.8 0.1 0.1 0.3 0.0 nan nan 0.1 0.1 0.1 0.1 0.3 0.1 0.1 0.1 0.2 nan nan nan nan 1.2
0.0 0.0 0.0 0.0 0.0 0.0 0.0 0.0 0.0 0.0 0.0 0.3 3.9 2.9 2.2 5.0 2.1 0.1 0.2 0.6 1.7 0.8 0.9 1.2 0.8 1.9 1.3 nan nan nan 0.7 1.4 1.7 0.7 0.2 0.1 0.0 nan 0.0 nan nan nan nan
0.0 0.0 0.0 0.0 0.0 0.0 0.0 0.0 0.0 0.0 0.0 0.0 0.1 1.9 3.0 5.0 6.7 3.9 4.7 5.0 1.8 2.1 1.1 1.4 1.8 1.1 2.7 nan nan nan 3.6 3.1 3.6 4.4 3.7 2.4 2.5 1.9 0.1 0.1 0.8 1.6 1.8
0.0 0.0 0.0 0.0 0.0 0.0 0.0 0.0 0.0 0.0 0.0 0.0 0.0 0.0 1.4 4.0 4.3 6.2 7.5 5.3 4.8 4.8 4.2 1.3 1.8 2.0 1.6 nan nan 0.3 2.0 4.5 6.3 5.1 4.5 4.9 5.4 nan nan 4.2 5.1 5.3 8.8
0.1 0.0 0.0 0.0 0.0 0.0 0.0 0.1 0.1 0.0 0.0 0.0 0.0 0.0 0.0 0.1 0.5 1.1 4.1 3.7 1.5 3.4 2.4 2.7 2.3 nan 2.7 nan nan nan 0.7 1.0 2.4 2.0 2.7 nan 3.1 nan nan 2.4 3.2 5.8 12.4
1.3 0.1 0.1 0.1 0.2 0.1 0.1 0.5 2.1 1.9 0.6 0.3 0.0 0.0 0.0 0.1 0.2 0.7 1.0 1.2 1.0 0.7 0.5 1.0 1.7 1.4 1.0 1.4 nan nan 1.5 3.1 2.6 3.4 4.6 4.6 nan nan nan nan 4.6 11.0 11.4
0.4 2.1 1.2 1.6 0.9 0.8 0.7 1.3 1.4 4.1 3.3 2.4 2.5 2.1 1.2 0.6 0.8 1.2 1.8 1.5 1.0 0.6 0.2 0.1 0.3 0.5 0.2 nan nan nan nan nan 2.1 4.2 4.4 6.0 nan nan nan 3.3 nan nan 3.4
0.1 0.1 1.9 2.5 2.0 0.9 1.1 2.7 3.2 3.0 3.2 4.4 5.7 4.9 3.1 3.6 2.7 3.1 3.4 2.9 1.5 1.4 0.7 1.0 1.4 1.6 1.0 1.3 nan nan nan nan 2.1 3.5 7.7 nan nan nan 1.5 nan nan 3.4 5.7
0.0 0.0 0.0 0.7 2.4 2.9 0.8 1.0 1.9 2.0 2.9 4.4 5.0 5.1 6.2 4.0 4.8 3.7 3.4 3.5 4.0 3.8 2.9 2.5 3.1 2.9 2.7 3.0 2.6 3.2 3.0 1.9 3.6 1.7 3.8 3.2 3.3 3.0 4.1 3.9 4.7 5.5 5.7
0.0 0.0 0.0 0.0 0.2 0.1 0.8 0.9 0.9 0.7 1.1 1.5 3.4 3.6 3.7 2.6 3.4 2.9 3.3 3.1 3.8 3.0 2.8 3.5 3.2 6.2 7.9 9.4 6.0 7.3 6.0 4.7 4.5 3.2 4.1 3.4 2.5 2.7 2.8 2.9 3.5 2.7 2.5
0.0 0.0 0.0 0.0 0.0 0.0 0.0 0.0 0.0 0.2 1.1 1.4 2.3 3.1 3.3 3.6 3.4 3.0 3.6 nan nan nan nan nan 2.5 5.5 nan nan nan nan nan nan nan 2.7 4.6 8.6 8.5 5.7 4.1 4.6 4.3 4.0 3.4
Water_Equivalent
0.00 0.00 0.00 0.00 0.00 0.00 0.00 0.00 0.00 0.00 0.00 0.00 0.00 0.00 0.00 0.00 0.00 0.00 0.00 0.00 0.00 0.00 0.00 0.00 0.00 0.00 0.00 0.00 0.00 0.00 0.00 0.00 0.00 0.00 0.00 0.00 0.00 0.00 0.00 0.00 0.00 0.00 0.00
0.00 0.00 0.00 0.00 0.00 0.00 0.00 0.00 0.00 0.00 0.00 0.00 0.00 0.00 0.00 0.00 0.00 0.00 0.00 0.00 0.00 0.00 0.00 0.00 0.00 0.00 0.00 0.00 0.00 0.00 0.00 0.00 0.00 0.00 0.00 0.00 0.00 0.00 0.00 0.00 0.00 0.00 0.00
0.00 0.00 0.00 0.00 0.00 0.00 0.00 0.00 0.00 0.00 0.00 0.00 0.00 0.00 0.00 0.00 0.00 0.00 0.00 0.00 0.00 0.00 0.00 0.00 0.00 0.00 0.00 0.00 0.00 0.00 0.00 0.00 0.00 0.00 0.01 0.00 0.00 0.00 0.00 0.00 0.00 0.00 0.00
0.00 0.00 0.00 0.00 0.00 0.00 0.00 0.00 0.00 0.00 0.00 0.00 0.00 0.00 0.00 0.00 0.00 0.00 0.00 0.00 0.00 0.00 0.00 0.00 0.00 0.00 0.00 0.00 0.00 0.00 0.00 0.00 0.00 0.00 0.00 0.00 0.00 0.02 0.00 0.00 0.00 0.00 0.00
0.00 0.00 0.00 0.00 0.00 0.00 0.00 0.00 0.00 0.00 0.00 0.00 0.00 0.00 0.00 0.00 0.00 0.00 0.00 0.00 0.00 0.00 0.00 0.00 0.00 0.00 0.00 0.00 0.00 0.00 0.00 0.00 0.00 0.00 0.00 0.00 0.00 0.00 0.01 0.00 0.00 0.00 0.00
0.00 0.00 0.00 0.00 0.00 0.00 0.00 0.00 0.00 0.00 0.00 0.00 0.00 0.00 0.00 0.00 0.00 0.00 0.00 0.00 0.00 0.00 0.00 0.00 0.00 0.00 0.00 0.00 0.00 0.00 0.00 0.00 0.00 0.00 0.00 0.00 0.03 0.00 0.02 0.02 0.00 0.00 0.00
0.00 0.00 0.00 0.00 0.00 0.00 0.00 0.00 0.00 0.00 0.00 0.00 0.00 0.00 0.00 0.00 0.00 0.00 0.00 0.00 0.00 0.00 0.00 0.00 0.00 0.00 0.00 0.00 0.00 0.00 0.00 0.00 0.00 0.00 0.00 0.00 0.00 0.00 0.00 0.01 0.00 0.00 0.00
0.00 0.00 0.00 0.00 0.00 0.00 0.00 0.00 0.00 0.00 0.00 0.00 0.00 0.00 0.00 0.00 0.00 0.00 0.00 0.00 0.00 0.00 0.00 0.00 0.00 0.00 0.00 0.00 0.00 0.00 0.00 0.00 0.00 0.00 0.00 0.00 0.00 0.00 0.00 0.01 0.04 0.01 0.00
0.00 0.00 0.00 0.00 0.00 0.00 0.00 0.00 0.00 0.00 0.00 0.00 0.00 0.00 0.00 0.00 0.00 0.00 0.00 0.00 0.00 0.00 0.00 0.00 0.00 0.00 0.00 0.00 0.00 0.00 0.00 0.00 0.01 0.01 0.01 0.01 0.00 0.00 0.00 0.00 0.00 0.04 0.07
0.00 0.00 0.00 0.00 0.00 0.00 0.00 0.00 0.00 0.00 0.00 0.00 0.00 0.00 0.00 0.00 0.00 0.00 0.00 0.00 0.00 0.00 0.00 0.00 0.00 0.00 0.00 0.00 0.00 0.00 0.01 0.00 0.02 0.01 0.02 0.01 0.01 0.02 0.01 0.00 0.00 0.00 0.03
0.00 0.00 0.00 0.00 0.00 0.00 0.00 0.00 0.00 0.00 0.00 0.00 0.00 0.00 0.00 0.00 0.00 0.00 0.00 0.00 0.01 0.00 0.00 0.00 0.01 0.01 0.01 0.01 0.01 0.01 0.01 0.01 0.01 0.01 0.03 0.02 0.01 0.05 0.07 0.03 0.01 0.01 0.03
0.00 0.00 0.01 0.01 0.00 0.01 0.01 0.01 0.00 0.00 0.00 0.00 0.00 0.00 0.01 0.00 0.01 0.01 0.01 0.01 0.01 0.00 0.01 0.01 0.01 0.01 0.02 0.02 0.02 0.03 0.02 0.03 0.02 0.02 0.02 0.03 0.00 0.04 0.05 0.13 0.05 0.07 0.08
0.00 0.00 0.00 0.00 0.13 0.00 0.03 0.01 0.02 0.02 0.01 0.00 0.00 0.01 0.02 0.02 0.02 0.02 0.01 0.01 0.01 0.01 0.01 0.02 0.02 0.02 0.02 0.02 0.02 0.03 0.02 0.03 0.03 0.04 0.03 0.06 0.03 0.04 0.13 0.18 0.26 0.15 0.04
0.00 0.00 0.00 0.00 0.00 0.00 0.04 0.47 0.02 0.03 0.04 0.05 0.02 0.03 0.04 0.04 0.04 0.02 0.01 0.00 0.00 0.00 0.00 0.01 0.02 0.05 0.03 0.02 0.02 0.02 0.03 0.04 0.05 0.05 0.05 0.10 0.08 0.17 0.11 0.09 0.24 0.17 0.18
0.00 0.00 0.00 0.00 0.00 0.00 0.00 0.00 0.01 0.12 0.44 0.26 0.24 0.41 0.07 0.04 0.02 0.02 0.00 0.00 0.00 0.00 0.00 0.00 0.00 0.00 0.01 0.02 0.02 0.02 0.03 0.03 0.04 0.04 0.02 0.04 nan nan nan 0.16 0.22 0.12 0.16
0.00 0.00 0.00 0.00 0.00 0.00 0.00 0.00 0.00 0.03 0.03 0.32 0.81 0.18 0.11 0.38 0.07 0.02 0.01 0.01 0.01 0.02 0.24 0.02 0.02 0.06 0.00 nan nan 0.01 0.03 0.02 0.03 0.06 0.02 0.02 0.03 0.04 nan nan nan nan 0.16
0.00 0.00 0.00 0.00 0.00 0.00 0.00 0.00 0.00 0.01 0.01 0.08 1.11 0.90 0.63 1.62 0.53 0.03 0.06 0.16 0.52 0.26 0.19 0.30 0.20 0.45 0.28 nan nan nan 0.19 0.32 0.37 0.13 0.04 0.02 0.01 nan 0.00 nan nan nan nan
0.00 0.00 0.00 0.00 0.00 0.00 0.00 0.00 0.00 0.00 0.01 0.00 0.03 0.52 0.71 1.27 2.37 1.09 1.25 1.35 0.37 0.44 0.22 0.30 0.48 0.30 0.93 nan nan nan 0.96 0.69 0.74 1.04 0.72 0.50 0.44 0.40 0.03 0.03 0.17 0.30 0.31
0.00 0.00 0.00 0.00 0.00 0.00 0.00 0.00 0.00 0.00 0.00 0.00 0.00 0.00 0.38 0.88 1.02 1.54 2.04 1.64 1.40 1.35 1.12 0.32 0.47 0.55 0.43 nan nan 0.08 0.56 1.25 1.85 1.38 1.06 1.06 1.05 nan nan 0.86 0.96 1.01 1.87
0.02 0.00 0.01 0.00 0.00 0.00 0.00 0.02 0.02 0.00 0.01 0.01 0.00 0.00 0.00 0.02 0.11 0.26 0.95 0.99 0.36 0.96 0.71 0.89 0.72 nan 0.66 nan nan nan 0.24 0.23 0.56 0.51 0.76 nan 0.89 nan nan 0.48 0.52 0.92 2.24
0.42 0.03 0.04 0.03 0.05 0.05 0.02 0.13 0.66 0.47 0.18 0.10 0.01 0.01 0.01 0.02 0.05 0.13 0.17 0.19 0.16 0.11 0.13 0.27 0.43 0.32 0.21 0.33 nan nan 0.32 0.63 0.52 0.66 0.86 0.96 nan nan nan nan 0.82 1.89 2.28
0.10 0.68 0.29 0.40 0.23 0.25 0.24 0.43 0.40 1.37 1.09 0.65 0.61 0.53 0.31 0.15 0.14 0.22 0.31 0.26 0.16 0.10 0.06 0.03 0.10 0.17 0.06 nan nan nan nan nan 0.42 0.77 0.85 1.15 nan nan nan 0.78 nan nan 0.95
0.04 0.03 0.45 0.56 0.41 0.20 0.33 0.72 0.83 0.98 0.98 1.27 1.27 1.13 0.85 0.86 0.62 0.61 0.65 0.54 0.22 0.30 0.15 0.28 0.37 0.42 0.30 0.35 nan nan nan nan 0.48 0.79 1.51 nan nan nan 0.50 nan nan 1.12 1.43
0.00 0.00 0.01 0.15 0.49 0.62 0.17 0.23 0.45 0.48 0.85 0.93 0.96 1.09 1.19 0.81 0.91 0.76 0.71 0.68 0.76 0.79 0.67 0.56 0.67 0.67 0.65 0.73 0.68 0.81 0.79 0.57 0.85 0.50 0.96 1.04 0.88 0.99 1.17 1.01 0.99 1.08 1.12
0.00 0.00 0.00 0.00 0.04 0.03 0.16 0.21 0.21 0.17 0.22 0.28 0.65 0.63 0.60 0.40 0.56 0.49 0.57 0.53 0.62 0.55 0.52 0.66 0.63 1.19 1.41 1.74 1.36 1.61 1.30 1.08 1.11 0.90 0.99 0.77 0.54 0.54 0.54 0.54 0.61 0.50 0.47
0.00 0.00 0.00 0.00 0.00 0.00 0.00 0.00 0.00 0.04 0.25 0.23 0.40 0.56 0.63 0.60 0.55 0.49 0.61 nan nan nan nan nan 0.55 1.16 nan nan nan nan nan nan nan 0.62 0.88 1.48 1.46 0.92 0.64 0.73 0.68 0.60 0.59
SL_Ratio
nan nan nan nan nan nan nan nan nan nan nan nan nan nan nan nan nan nan nan nan nan nan nan nan nan nan nan nan nan nan nan nan nan nan nan nan nan nan nan nan nan nan nan
nan nan nan nan nan nan nan nan nan nan nan nan nan nan nan nan nan nan nan nan nan nan nan nan nan nan nan nan nan nan nan nan nan nan nan nan nan nan nan nan nan nan nan
nan nan nan nan nan nan nan nan nan nan nan nan nan nan nan nan nan nan nan nan nan nan nan nan nan nan nan nan nan nan nan nan nan nan 5.0 6.3 nan nan nan nan nan nan nan
nan nan nan nan nan nan nan nan nan nan nan nan nan nan nan nan nan nan nan nan nan nan nan nan nan nan nan nan nan nan nan nan nan nan nan nan 4.6 4.9 6.7 nan nan nan nan
nan nan nan nan nan nan nan nan nan nan nan nan nan nan nan nan nan nan nan nan nan nan nan nan nan nan nan nan nan nan nan nan nan nan nan nan nan nan 5.5 7.0 nan nan nan
nan nan nan nan nan nan nan nan nan nan nan nan nan nan nan nan nan nan nan nan nan nan nan nan nan nan nan nan nan nan nan nan nan nan nan 3.3 4.3 5.0 4.3 5.8 nan nan nan
nan nan nan nan nan nan nan nan nan nan nan nan nan nan nan nan nan nan nan nan nan nan nan nan nan nan nan nan nan nan nan nan nan 5.0 4.4 nan nan nan nan 4.7 5.0 nan nan
nan nan nan nan nan nan nan nan nan nan nan nan nan nan nan nan nan nan nan nan nan nan nan nan nan nan nan nan nan nan nan nan 4.6 4.7 nan 5.0 nan nan nan 4.7 5.0 6.5 nan
nan nan nan nan nan nan nan nan nan nan nan nan nan nan nan nan nan nan nan nan nan nan nan nan nan nan nan nan nan nan 5.0 3.3 4.7 4.4 4.4 4.4 3.8 0.0 nan nan 3.3 4.4 5.9
nan nan nan nan nan nan nan nan nan nan nan nan nan nan nan nan nan nan nan nan nan 3.3 3.8 nan nan nan nan nan nan 0.0 4.7 5.0 4.8 4.5 4.8 4.5 4.3 4.4 3.9 4.0 nan nan 4.5
nan nan nan nan nan nan nan nan nan nan nan nan nan nan nan 3.3 nan 0.0 nan 3.0 3.5 4.2 3.6 3.3 3.9 3.9 4.0 3.9 4.1 4.6 4.7 4.9 5.0 4.7 4.8 4.9 4.5 4.8 4.5 4.1 4.1 3.8 4.3
nan nan 2.7 2.9 nan 2.9 3.0 3.5 nan nan nan nan nan 5.0 4.1 4.0 3.5 3.5 3.6 3.7 3.9 3.3 3.8 3.8 3.6 3.7 3.8 3.9 4.6 4.7 4.7 4.9 4.9 5.1 4.9 4.7 4.5 5.0 5.0 4.8 4.6 4.4 3.9
nan nan nan nan 2.8 nan 3.1 3.2 3.3 3.8 2.9 5.0 3.3 4.0 4.2 4.0 3.8 3.9 3.8 3.9 3.8 3.8 3.8 3.8 3.8 3.9 3.8 4.1 4.2 4.4 4.9 4.6 4.8 4.9 5.1 5.3 4.6 4.8 5.3 5.6 5.5 5.0 4.7
nan nan nan nan nan 3.1 3.4 3.1 3.5 3.6 3.2 2.8 3.6 4.0 4.1 4.0 4.2 4.0 3.8 0.0 nan nan 3.3 3.6 3.7 4.1 4.3 4.3 4.7 4.7 4.8 5.1 5.5 5.7 5.3 5.2 5.6 6.0 5.9 5.9 6.4 5.8 5.5
nan nan nan nan nan nan 10.0 nan 3.2 3.4 3.2 3.0 3.2 3.5 3.9 3.8 3.6 3.9 3.8 nan 3.0 2.0 nan nan nan 3.3 4.2 4.7 4.7 4.7 5.1 5.2 5.2 5.1 5.1 5.2 nan nan nan 5.7 7.3 6.4 6.5
nan nan nan nan nan nan nan nan nan 3.7 3.4 4.1 3.9 3.8 3.3 2.7 3.2 3.2 3.4 3.3 3.5 3.3 3.4 3.8 3.8 4.1 2.5 nan nan 4.0 4.3 4.3 5.0 5.1 4.5 4.3 4.3 4.5 nan nan nan nan 7.5
nan nan nan nan nan nan nan nan nan 3.5 3.3 3.7 3.5 3.2 3.4 3.1 3.9 3.6 3.4 3.6 3.2 3.0 4.4 4.2 3.9 4.1 4.6 nan nan nan 3.9 4.3 4.5 5.2 4.5 4.3 4.0 nan 3.3 nan nan nan nan
nan nan nan nan nan nan nan nan nan nan 3.5 nan 3.7 3.7 4.2 3.9 2.8 3.6 3.7 3.7 4.8 4.7 5.0 4.7 3.8 3.6 2.9 nan nan nan 3.8 4.4 4.8 4.2 5.1 4.8 5.6 4.8 4.0 3.4 4.6 5.3 5.9
nan nan nan nan nan nan nan nan nan nan nan nan 5.0 5.0 3.7 4.6 4.2 4.1 3.7 3.2 3.4 3.6 3.7 4.0 3.9 3.6 3.7 nan nan 3.7 3.6 3.6 3.4 3.7 4.2 4.6 5.2 nan nan 4.9 5.3 5.2 4.7
3.3 3.3 3.3 nan 3.3 3.8 nan 3.2 3.5 3.0 3.7 3.6 nan nan nan 3.4 4.1 4.2 4.3 3.7 4.1 3.6 3.3 3.0 3.2 nan 4.1 nan nan nan 3.0 4.5 4.3 3.9 3.6 nan 3.5 nan nan 4.9 6.1 6.3 5.6
3.1 3.0 2.9 3.6 3.7 2.9 2.8 3.5 3.2 3.9 3.7 3.1 3.0 3.3 2.9 2.9 4.5 5.5 5.9 6.1 6.4 6.0 3.9 3.9 4.0 4.3 4.8 4.3 nan nan 4.6 4.8 4.9 5.1 5.3 4.8 nan nan nan nan 5.7 5.8 5.0
3.8 3.2 4.3 4.0 3.9 3.1 2.8 3.2 3.6 3.0 3.0 3.6 4.0 4.0 3.9 4.3 5.4 5.4 5.8 6.0 6.6 6.2 3.7 3.2 3.3 3.2 3.5 nan nan nan nan nan 4.9 5.5 5.2 5.2 nan nan nan 4.3 nan nan 3.6
3.9 3.6 4.2 4.4 4.8 4.4 3.4 3.7 3.9 3.1 3.3 3.4 4.5 4.3 3.7 4.2 4.3 5.0 5.2 5.3 6.7 4.7 5.1 3.6 3.8 3.9 3.5 3.7 nan nan nan nan 4.4 4.4 5.1 nan nan nan 3.0 nan nan 3.0 4.0
nan nan 3.7 4.9 4.8 4.7 4.7 4.2 4.2 4.2 3.4 4.7 5.2 4.7 5.2 4.9 5.2 4.8 4.8 5.1 5.3 4.8 4.3 4.4 4.6 4.3 4.2 4.1 3.9 3.9 3.8 3.3 4.3 3.4 4.0 3.0 3.7 3.0 3.5 3.9 4.7 5.1 5.1
nan nan nan 4.0 4.2 4.0 5.1 4.6 4.4 4.1 4.8 5.3 5.2 5.8 6.2 6.4 6.1 6.0 5.9 5.8 6.1 5.5 5.4 5.3 5.1 5.2 5.6 5.4 4.4 4.5 4.6 4.3 4.1 3.6 4.1 4.4 4.7 5.1 5.3 5.3 5.7 5.4 5.4
nan nan nan nan nan nan 4.3 nan 4.3 4.2 4.4 6.2 5.8 5.5 5.3 6.0 6.3 6.2 6.0 nan nan nan nan nan 4.5 4.7 nan nan nan nan nan nan nan 4.4 5.2 5.8 5.8 6.2 6.3 6.3 6.4 6.7 5.8